AEA951 LEMD-LFST

Flight info

Callsign AEA951
Flight time N/A
Altitude 34000
Route RBO N867 DGO/N0465F380 L176 SSN DCT URUNA DCT BTZ DCT VAVIX DCT OSMOB DCT UVELI DCT LMG DCT BEBIX DCT GUERE DCT KUKOR/N0383F180 G21 RLP/N0389F190 G21 EPL
Aircraft B738/M-SDE2E3FGHIRWXY/LB1

Departure

Time 2026-05-05 20:18
Airport Adolfo Suárez Madrid–Barajas Airport (LEMD)

Arrival

Time N/A
Airport Strasbourg Airport (LFST)
Time Latitude Longitude Altitude Speed Heading
2026-05-05 20:03 40.46994 -3.56859 1979 ft 0 kts 232°
2026-05-05 20:04 40.46995 -3.56857 1979 ft 2 kts 232°
2026-05-05 20:04 40.47011 -3.56830 1979 ft 4 kts 232°
2026-05-05 20:04 40.47026 -3.56805 1979 ft 2 kts 232°
2026-05-05 20:05 40.47039 -3.56780 1979 ft 4 kts 260°
2026-05-05 20:05 40.47035 -3.56751 1979 ft 4 kts 319°
2026-05-05 20:05 40.47014 -3.56731 1979 ft 3 kts 325°
2026-05-05 20:05 40.47012 -3.56729 1979 ft 1 kts 325°
2026-05-05 20:10 40.47014 -3.56731 1979 ft 2 kts 320°
2026-05-05 20:10 40.47039 -3.56761 1979 ft 8 kts 318°
2026-05-05 20:10 40.47089 -3.56821 1979 ft 11 kts 315°
2026-05-05 20:10 40.47152 -3.56898 1979 ft 14 kts 324°
2026-05-05 20:11 40.47252 -3.56926 1979 ft 16 kts
2026-05-05 20:11 40.47333 -3.56863 1979 ft 11 kts 35°
2026-05-05 20:11 40.47399 -3.56890 1979 ft 11 kts 322°
2026-05-05 20:11 40.47468 -3.56960 1979 ft 14 kts 322°
2026-05-05 20:12 40.47553 -3.57045 1979 ft 17 kts 322°
2026-05-05 20:12 40.47650 -3.57141 1979 ft 17 kts 321°
2026-05-05 20:12 40.47746 -3.57242 1979 ft 19 kts 322°
2026-05-05 20:12 40.47854 -3.57352 1979 ft 21 kts 322°
2026-05-05 20:13 40.47971 -3.57469 1979 ft 22 kts 322°
2026-05-05 20:13 40.48089 -3.57590 1979 ft 22 kts 322°
2026-05-05 20:13 40.48207 -3.57711 1979 ft 21 kts 322°
2026-05-05 20:13 40.48327 -3.57829 1979 ft 21 kts 324°
2026-05-05 20:14 40.48450 -3.57939 1979 ft 21 kts 327°
2026-05-05 20:14 40.48578 -3.58041 1979 ft 21 kts 337°
2026-05-05 20:14 40.48724 -3.58060 1979 ft 22 kts
2026-05-05 20:14 40.48874 -3.58059 1979 ft 21 kts 359°
2026-05-05 20:15 40.49019 -3.58061 1979 ft 21 kts 359°
2026-05-05 20:15 40.49158 -3.58063 1979 ft 15 kts 360°
2026-05-05 20:15 40.49241 -3.58016 1979 ft 14 kts 72°
2026-05-05 20:15 40.49245 -3.57890 1979 ft 14 kts 89°
2026-05-05 20:16 40.49246 -3.57769 1979 ft 13 kts 90°
2026-05-05 20:16 40.49247 -3.57649 1979 ft 14 kts 82°
2026-05-05 20:16 40.49286 -3.57533 1979 ft 15 kts 60°
2026-05-05 20:16 40.49354 -3.57464 1979 ft 7 kts
2026-05-05 20:17 40.49360 -3.57464 1979 ft 5 kts 360°
2026-05-05 20:17 40.49540 -3.57465 1979 ft 64 kts 359°
2026-05-05 20:17 40.50268 -3.57470 1979 ft 143 kts 360°
2026-05-05 20:17 40.51487 -3.57478 2016 ft 204 kts 359°
2026-05-05 20:18 40.52950 -3.57451 2743 ft 212 kts
2026-05-05 20:18 40.54411 -3.57383 3750 ft 207 kts
2026-05-05 20:18 40.55862 -3.57242 4385 ft 218 kts 11°
2026-05-05 20:18 40.57359 -3.56727 4785 ft 233 kts 16°
2026-05-05 20:19 40.58949 -3.56087 5273 ft 243 kts 17°
2026-05-05 20:19 40.60582 -3.55444 5885 ft 247 kts 16°
2026-05-05 20:19 40.62237 -3.54810 6520 ft 249 kts 15°
2026-05-05 20:19 40.63914 -3.54201 7111 ft 252 kts 11°
2026-05-05 20:20 40.65671 -3.53956 7713 ft 255 kts
2026-05-05 20:20 40.67447 -3.53835 8365 ft 259 kts
2026-05-05 20:20 40.69257 -3.53672 9124 ft 262 kts 10°
2026-05-05 20:20 40.70884 -3.52633 9817 ft 269 kts 44°
2026-05-05 20:21 40.72078 -3.50647 10074 ft 292 kts 56°
2026-05-05 20:21 40.73258 -3.48326 10285 ft 317 kts 57°
2026-05-05 20:21 40.74511 -3.45829 10467 ft 339 kts 56°
2026-05-05 20:21 40.75860 -3.43164 10626 ft 360 kts 56°
2026-05-05 20:22 40.77293 -3.40364 10844 ft 375 kts 56°
2026-05-05 20:22 40.78778 -3.37484 11300 ft 382 kts 56°
2026-05-05 20:22 40.80285 -3.34576 11867 ft 385 kts 56°
2026-05-05 20:22 40.81800 -3.31655 12443 ft 387 kts 56°
2026-05-05 20:23 40.83326 -3.28713 12959 ft 390 kts 56°
2026-05-05 20:23 40.85091 -3.25992 13386 ft 394 kts 38°
2026-05-05 20:23 40.87458 -3.24263 13861 ft 396 kts 19°
2026-05-05 20:23 40.90149 -3.23480 14340 ft 398 kts
2026-05-05 20:24 40.92900 -3.22921 14743 ft 401 kts
2026-05-05 20:24 40.95674 -3.22363 15121 ft 405 kts
2026-05-05 20:24 40.98468 -3.21777 15506 ft 408 kts
2026-05-05 20:24 41.01270 -3.21163 15882 ft 410 kts
2026-05-05 20:25 41.04094 -3.20531 16242 ft 413 kts
2026-05-05 20:25 41.06932 -3.19892 16596 ft 415 kts
2026-05-05 20:25 41.09786 -3.19246 16936 ft 417 kts
2026-05-05 20:25 41.12649 -3.18597 17255 ft 419 kts
2026-05-05 20:26 41.15487 -3.17954 17548 ft 421 kts
2026-05-05 20:26 41.18384 -3.17297 17834 ft 423 kts
2026-05-05 20:26 41.21294 -3.16636 18105 ft 425 kts
2026-05-05 20:26 41.24217 -3.15973 18366 ft 427 kts
2026-05-05 20:27 41.27153 -3.15305 18613 ft 429 kts
2026-05-05 20:27 41.30105 -3.14634 18851 ft 431 kts
2026-05-05 20:27 41.33065 -3.13960 19079 ft 433 kts
2026-05-05 20:27 41.36037 -3.13283 19298 ft 434 kts
2026-05-05 20:28 41.39023 -3.12602 19508 ft 436 kts
2026-05-05 20:28 41.42020 -3.11917 19707 ft 438 kts
2026-05-05 20:28 41.44987 -3.11239 19895 ft 439 kts
2026-05-05 20:28 41.48002 -3.10550 20077 ft 441 kts
2026-05-05 20:29 41.51025 -3.09858 20252 ft 442 kts
2026-05-05 20:29 41.54064 -3.09168 20431 ft 443 kts
2026-05-05 20:29 41.57106 -3.08481 20605 ft 444 kts
2026-05-05 20:29 41.60156 -3.07792 20744 ft 446 kts
2026-05-05 20:30 41.63218 -3.07100 20879 ft 447 kts
2026-05-05 20:30 41.66287 -3.06404 21021 ft 448 kts
2026-05-05 20:30 41.68327 -3.05941 21114 ft 449 kts
2026-05-05 20:30 41.72410 -3.05012 21287 ft 450 kts
2026-05-05 20:31 41.75503 -3.04307 21379 ft 452 kts
2026-05-05 20:31 41.78611 -3.03594 21451 ft 454 kts
2026-05-05 20:31 41.81725 -3.02877 21615 ft 453 kts
2026-05-05 20:31 41.84831 -3.02161 21762 ft 453 kts
2026-05-05 20:32 41.87944 -3.01444 21866 ft 454 kts
2026-05-05 20:32 41.90007 -3.00968 21924 ft 455 kts
2026-05-05 20:32 41.93132 -3.00246 22013 ft 456 kts
2026-05-05 20:32 41.96264 -2.99523 22108 ft 457 kts
2026-05-05 20:33 42.00419 -2.98562 22231 ft 458 kts
2026-05-05 20:33 42.03565 -2.97834 22265 ft 460 kts
2026-05-05 20:33 42.06723 -2.97102 22363 ft 460 kts
2026-05-05 20:33 42.08810 -2.96618 22443 ft 460 kts
2026-05-05 20:34 42.11962 -2.95886 22541 ft 460 kts
2026-05-05 20:34 42.15120 -2.95152 22607 ft 461 kts
2026-05-05 20:34 42.18280 -2.94417 22672 ft 462 kts
2026-05-05 20:34 42.22479 -2.93439 22764 ft 462 kts
2026-05-05 20:35 42.25648 -2.92700 22827 ft 463 kts
2026-05-05 20:35 42.27795 -2.92199 22868 ft 463 kts
2026-05-05 20:35 42.30970 -2.91457 22927 ft 464 kts
2026-05-05 20:35 42.34108 -2.90724 22984 ft 464 kts
2026-05-05 20:36 42.37294 -2.89978 23036 ft 465 kts
2026-05-05 20:36 42.40479 -2.89227 23086 ft 465 kts 11°
2026-05-05 20:36 42.43596 -2.88066 23114 ft 466 kts 21°
2026-05-05 20:36 42.46519 -2.86176 23175 ft 466 kts 30°
2026-05-05 20:37 42.49183 -2.83679 23225 ft 466 kts 40°
2026-05-05 20:37 42.51614 -2.80763 23277 ft 467 kts 42°
2026-05-05 20:37 42.54017 -2.77797 23307 ft 467 kts 42°
2026-05-05 20:37 42.56418 -2.74826 23338 ft 468 kts 42°
2026-05-05 20:38 42.58795 -2.71900 23380 ft 468 kts 42°
2026-05-05 20:38 42.61217 -2.68941 23426 ft 468 kts 42°
2026-05-05 20:38 42.63646 -2.65987 23462 ft 469 kts 41°
2026-05-05 20:38 42.66078 -2.63040 23495 ft 469 kts 41°
2026-05-05 20:39 42.68514 -2.60089 23528 ft 469 kts 41°
2026-05-05 20:39 42.70952 -2.57133 23561 ft 470 kts 41°
2026-05-05 20:39 42.73389 -2.54176 23594 ft 470 kts 41°
2026-05-05 20:39 42.75796 -2.51251 23623 ft 470 kts 41°
2026-05-05 20:40 42.78232 -2.48286 23652 ft 470 kts 41°
2026-05-05 20:40 42.80669 -2.45315 23653 ft 471 kts 42°
2026-05-05 20:40 42.83110 -2.42336 23684 ft 471 kts 42°
2026-05-05 20:40 42.85548 -2.39358 23721 ft 471 kts 42°
2026-05-05 20:41 42.87987 -2.36375 23748 ft 471 kts 42°
2026-05-05 20:41 42.90425 -2.33390 23768 ft 471 kts 42°
2026-05-05 20:41 42.92864 -2.30400 23792 ft 472 kts 42°
2026-05-05 20:41 42.95302 -2.27409 23815 ft 472 kts 42°
2026-05-05 20:42 42.97741 -2.24414 23837 ft 472 kts 42°
2026-05-05 20:42 43.00150 -2.21449 23857 ft 472 kts 42°
2026-05-05 20:42 43.02585 -2.18441 23874 ft 472 kts 42°
2026-05-05 20:42 43.05018 -2.15428 23894 ft 472 kts 42°
2026-05-05 20:43 43.07455 -2.12410 23913 ft 473 kts 42°
2026-05-05 20:43 43.09891 -2.09391 23930 ft 473 kts 42°
2026-05-05 20:43 43.12326 -2.06373 23946 ft 473 kts 42°
2026-05-05 20:43 43.14762 -2.03352 24166 ft 467 kts 42°
2026-05-05 20:44 43.17133 -2.00410 24799 ft 454 kts 42°
2026-05-05 20:44 43.19439 -1.97544 25441 ft 441 kts 42°
2026-05-05 20:44 43.21680 -1.94756 26108 ft 428 kts 42°
2026-05-05 20:44 43.23858 -1.92043 26707 ft 419 kts 42°
2026-05-05 20:45 43.28145 -1.86696 27010 ft 423 kts 42°
2026-05-05 20:45 43.30321 -1.83950 27099 ft 426 kts 44°
2026-05-05 20:45 43.32264 -1.80877 27237 ft 427 kts 55°
2026-05-05 20:46 43.33904 -1.77479 27423 ft 427 kts 57°
2026-05-05 20:46 43.35515 -1.74049 27575 ft 428 kts 57°
2026-05-05 20:46 43.37150 -1.70614 27696 ft 430 kts 56°
2026-05-05 20:46 43.38810 -1.67195 27817 ft 431 kts 56°
2026-05-05 20:47 43.40484 -1.63774 27946 ft 432 kts 56°
2026-05-05 20:47 43.42163 -1.60339 28076 ft 433 kts 56°
2026-05-05 20:47 43.43817 -1.56945 28194 ft 434 kts 56°
2026-05-05 20:47 43.45513 -1.53507 28306 ft 435 kts 53°
2026-05-05 20:48 43.49829 -1.47693 28514 ft 436 kts 36°
2026-05-05 20:48 43.52297 -1.45252 28633 ft 437 kts 35°
2026-05-05 20:48 43.54787 -1.42839 28727 ft 438 kts 35°
2026-05-05 20:49 43.57283 -1.40422 28844 ft 438 kts 35°
2026-05-05 20:49 43.59774 -1.37992 28969 ft 439 kts 35°
2026-05-05 20:49 43.62261 -1.35547 29071 ft 439 kts 36°
2026-05-05 20:49 43.64713 -1.33119 29154 ft 440 kts 36°
2026-05-05 20:50 43.69691 -1.28159 29322 ft 442 kts 36°
2026-05-05 20:50 43.74676 -1.23174 29489 ft 443 kts 36°
2026-05-05 20:51 43.79680 -1.18159 29641 ft 445 kts 36°
2026-05-05 20:51 43.84694 -1.13125 29785 ft 446 kts 36°
2026-05-05 20:52 43.89683 -1.08106 29919 ft 447 kts 36°
2026-05-05 20:52 43.94720 -1.03028 30046 ft 448 kts 36°
2026-05-05 20:53 43.99764 -0.97931 30164 ft 449 kts 36°
2026-05-05 20:53 44.04819 -0.92814 30274 ft 450 kts 36°
2026-05-05 20:54 44.09846 -0.87713 30376 ft 451 kts 36°
2026-05-05 20:54 44.14915 -0.82558 30472 ft 452 kts 36°
2026-05-05 20:55 44.19991 -0.77383 30562 ft 452 kts 36°
2026-05-05 20:55 44.25076 -0.72191 30646 ft 453 kts 36°
2026-05-05 20:56 44.30184 -0.67028 30723 ft 454 kts 34°
2026-05-05 20:56 44.35375 -0.62102 30796 ft 454 kts 34°
2026-05-05 20:57 44.40618 -0.57153 30865 ft 455 kts 34°
2026-05-05 20:57 44.45852 -0.52157 30928 ft 456 kts 34°
2026-05-05 20:58 44.51084 -0.47130 30989 ft 456 kts 34°
2026-05-05 20:58 44.56282 -0.42123 31044 ft 457 kts 34°
2026-05-05 20:59 44.61520 -0.37070 31097 ft 457 kts 34°
2026-05-05 20:59 44.66707 -0.31903 31143 ft 458 kts 38°
2026-05-05 21:00 44.71658 -0.26266 31190 ft 458 kts 39°
2026-05-05 21:00 44.76534 -0.20578 31232 ft 458 kts 39°
2026-05-05 21:01 44.81464 -0.14887 31274 ft 459 kts 39°
2026-05-05 21:01 44.86413 -0.09205 31311 ft 459 kts 39°
2026-05-05 21:02 44.91365 -0.03513 31340 ft 460 kts 39°
2026-05-05 21:02 44.96323 0.02203 31354 ft 460 kts 39°
2026-05-05 21:03 45.01245 0.07890 31414 ft 460 kts 39°
2026-05-05 21:03 45.06195 0.13623 31445 ft 460 kts 39°
2026-05-05 21:04 45.08672 0.16495 31452 ft 460 kts 39°